Hillsdale, MI

11:42 PM EST on November 22, 2017 (GMT -0500)
Hillsdale Municipal

Weather History for KJYM - October, 2013

Change the Weather History Date:

Monday, October 28, 2013

  Actual Average Record
Temperature  
Mean Temperature 42 °F -  
Max Temperature 54 °F 57 °F 74 °F (1966)
Min Temperature 30 °F 35 °F 16 °F (1976)
Degree Days  
Heating Degree Days 23    
Moisture  
Dew Point 34 °F    
Average Humidity 72    
Maximum Humidity 94    
Minimum Humidity 49    
Precipitation  
Precipitation 0.00 in - - ()
Sea Level Pressure  
Sea Level Pressure 30.21 in    
Wind  
Wind Speed 4 mph (NE)    
Max Wind Speed 10 mph    
Max Gust Speed -    
Visibility 10 miles    
Events      
Averages and records for this station are not official NWS values.
T = Trace of Precipitation, MM = Missing Value Source: NWS Daily Summary

Daily Weather History Graph

Daily Weather History Graph

Search for Another Location

Airport or City:

Trip Planner

Search our weather history database for the weather conditions in past years. The results will help you decide how hot, cold, wet, or windy it might be!

Date:

Astronomy

Oct. 28, 2013 Rise Set
Actual Time 8:06 AM EDT 6:37 PM EDT
Civil Twilight 7:37 AM EDT 7:06 PM EDT
Nautical Twilight 7:04 AM EDT 7:38 PM EDT
Astronomical Twilight 6:32 AM EDT 8:11 PM EDT
Moon 1:52 AM EDT (10/28) 3:23 PM EDT (10/28)
Length of Visible Light 11h 28m
Length of Day
10h 31m
Waning Crescent, 34% of the Moon is Illuminated
Oct 28
Waning Crescent
Nov 3
New
Nov 10
First Quarter
Nov 17
Full
Nov 25
Last Quarter

Hourly Weather History & Observations

Time (EDT) Temp. Windchill Dew Point Humidity Pressure Visibility Wind Dir Wind Speed Gust Speed Precip Events Conditions
12:15 AM 43.2 °F 39.7 °F 28.6 °F 56% 30.03 in 10.0 mi WSW 5.8 mph - N/A   Clear
12:35 AM 43.0 °F 39.5 °F 28.6 °F 57% 30.04 in 10.0 mi WSW 5.8 mph - N/A   Clear
12:54 AM 42.3 °F 39.4 °F 28.6 °F 58% 30.05 in 10.0 mi WSW 4.6 mph - N/A   Clear
1:15 AM 41.7 °F 38.0 °F 28.2 °F 59% 30.06 in 10.0 mi West 5.8 mph - N/A   Clear
1:35 AM 41.2 °F 38.2 °F 28.6 °F 61% 30.07 in 10.0 mi West 4.6 mph - N/A   Clear
1:54 AM 41.2 °F 38.2 °F 28.2 °F 60% 30.07 in 10.0 mi West 4.6 mph - N/A   Clear
2:15 AM 40.5 °F 38.4 °F 28.2 °F 62% 30.07 in 10.0 mi West 3.5 mph - N/A   Clear
2:34 AM 39.4 °F 36.1 °F 28.2 °F 64% 30.07 in 10.0 mi West 4.6 mph - N/A   Clear
2:54 AM 40.3 °F 38.2 °F 28.0 °F 62% 30.08 in 10.0 mi West 3.5 mph - N/A   Clear
3:14 AM 40.1 °F 36.9 °F 28.2 °F 63% 30.08 in 10.0 mi West 4.6 mph - N/A   Clear
3:34 AM 39.9 °F 36.7 °F 28.0 °F 63% 30.08 in 10.0 mi West 4.6 mph - N/A   Clear
3:55 AM 39.4 °F 35.2 °F 28.2 °F 64% 30.08 in 10.0 mi West 5.8 mph - N/A   Clear
4:14 AM 39.6 °F 36.3 °F 28.2 °F 64% 30.08 in 10.0 mi West 4.6 mph - N/A   Clear
4:34 AM 39.7 °F 36.5 °F 28.4 °F 64% 30.09 in 10.0 mi West 4.6 mph - N/A   Clear
4:55 AM 39.6 °F - 28.2 °F 64% 30.10 in 10.0 mi Calm Calm - N/A   Clear
5:14 AM 35.2 °F - 28.6 °F 77% 30.10 in 10.0 mi Calm Calm - N/A   Clear
5:35 AM 32.9 °F - 28.4 °F 84% 30.11 in 10.0 mi Calm Calm - N/A   Clear
5:54 AM 31.6 °F - 28.9 °F 90% 30.12 in 10.0 mi Calm Calm - N/A   Clear
6:14 AM 31.1 °F - 28.8 °F 91% 30.12 in 10.0 mi Calm Calm - N/A   Clear
6:35 AM 31.1 °F - 29.5 °F 94% 30.13 in 10.0 mi Calm Calm - N/A   Clear
6:54 AM 31.3 °F - 29.8 °F 94% 30.13 in 10.0 mi Calm Calm - N/A   Clear
7:15 AM 30.7 °F - 28.9 °F 93% 30.14 in 10.0 mi Calm Calm - N/A   Scattered Clouds
7:34 AM 32.5 °F - 30.7 °F 93% 30.15 in 10.0 mi Calm Calm - N/A   Overcast
7:54 AM 34.2 °F - 31.8 °F 91% 30.16 in 10.0 mi Calm Calm - N/A   Overcast
8:15 AM 35.2 °F - 33.3 °F 92% 30.17 in 10.0 mi Calm Calm - N/A   Overcast
8:34 AM 36.3 °F - 33.4 °F 89% 30.18 in 10.0 mi Calm Calm - N/A   Overcast
8:55 AM 37.2 °F - 35.1 °F 92% 30.19 in 10.0 mi Calm Calm - N/A   Overcast
9:15 AM 39.0 °F 35.7 °F 36.1 °F 89% 30.20 in 10.0 mi North 4.6 mph - N/A   Overcast
9:34 AM 41.9 °F 40.0 °F 34.5 °F 75% 30.20 in 10.0 mi North 3.5 mph - N/A   Overcast
9:55 AM 43.0 °F 40.3 °F 34.9 °F 73% 30.22 in 10.0 mi NE 4.6 mph - N/A   Overcast
10:15 AM 43.3 °F 39.2 °F 35.6 °F 74% 30.23 in 10.0 mi NE 6.9 mph - N/A   Overcast
10:34 AM 44.4 °F 41.2 °F 36.5 °F 74% 30.24 in 10.0 mi NE 5.8 mph - N/A   Overcast
10:55 AM 45.1 °F 40.8 °F 36.0 °F 70% 30.25 in 10.0 mi ENE 8.1 mph - N/A   Overcast
11:14 AM 46.4 °F 42.4 °F 36.5 °F 68% 30.25 in 10.0 mi ENE 8.1 mph - N/A   Mostly Cloudy
11:35 AM 48.6 °F - 36.7 °F 64% 30.26 in 10.0 mi East 9.2 mph - N/A   Scattered Clouds
11:55 AM 49.3 °F - 36.9 °F 62% 30.26 in 10.0 mi ENE 10.4 mph - N/A   Scattered Clouds
12:14 PM 49.6 °F - 36.9 °F 61% 30.26 in 10.0 mi East 5.8 mph - N/A   Clear
12:35 PM 50.7 °F - 36.7 °F 59% 30.27 in 10.0 mi East 8.1 mph - N/A   Clear
12:55 PM 52.9 °F - 36.7 °F 54% 30.27 in 10.0 mi East 8.1 mph - N/A   Scattered Clouds
1:14 PM 52.9 °F - 36.0 °F 53% 30.26 in 10.0 mi East 3.5 mph - N/A   Overcast
1:35 PM 53.8 °F - 36.7 °F 52% 30.26 in 10.0 mi East 3.5 mph - N/A   Scattered Clouds
1:54 PM 53.6 °F - 36.0 °F 51% 30.26 in 10.0 mi NE 5.8 mph - N/A   Scattered Clouds
2:14 PM 53.8 °F - 35.2 °F 50% 30.25 in 10.0 mi ENE 3.5 mph - N/A   Scattered Clouds
2:35 PM 54.3 °F - 36.7 °F 51% 30.25 in 10.0 mi NE 5.8 mph - N/A   Clear
2:54 PM 54.3 °F - 36.1 °F 50% 30.26 in 10.0 mi ENE 6.9 mph - N/A   Mostly Cloudy
3:14 PM 53.6 °F - 35.8 °F 51% 30.26 in 10.0 mi East 4.6 mph - N/A   Mostly Cloudy
3:35 PM 54.5 °F - 36.0 °F 50% 30.25 in 10.0 mi ENE 4.6 mph - N/A   Mostly Cloudy
3:54 PM 54.5 °F - 35.4 °F 49% 30.26 in 10.0 mi ENE 4.6 mph - N/A   Mostly Cloudy
4:15 PM 52.5 °F - 38.1 °F 58% 30.26 in 10.0 mi NE 8.1 mph - N/A   Overcast
4:35 PM 52.3 °F - 38.5 °F 59% 30.27 in 10.0 mi NE 8.1 mph - N/A   Mostly Cloudy
4:54 PM 52.3 °F - 38.5 °F 59% 30.27 in 10.0 mi NE 9.2 mph - N/A   Scattered Clouds
5:15 PM 51.4 °F - 38.1 °F 60% 30.27 in 10.0 mi ENE 6.9 mph - N/A   Clear
5:34 PM 50.7 °F - 38.1 °F 62% 30.27 in 10.0 mi ENE 8.1 mph - N/A   Clear
5:55 PM 50.2 °F - 38.5 °F 64% 30.27 in 10.0 mi NE 8.1 mph - N/A   Clear
6:15 PM 49.3 °F - 38.1 °F 65% 30.28 in 10.0 mi NE 6.9 mph - N/A   Clear
6:34 PM 48.2 °F - 37.9 °F 68% 30.28 in 10.0 mi ENE 5.8 mph - N/A   Clear
6:55 PM 46.0 °F 44.8 °F 37.8 °F 73% 30.28 in 10.0 mi ENE 3.5 mph - N/A   Clear
7:15 PM 43.7 °F 42.1 °F 38.3 °F 81% 30.28 in 10.0 mi East 3.5 mph - N/A   Clear
7:34 PM 42.8 °F - 38.3 °F 84% 30.30 in 10.0 mi Calm Calm - N/A   Clear
7:55 PM 41.7 °F - 38.3 °F 88% 30.30 in 10.0 mi Calm Calm - N/A   Clear
8:14 PM 40.6 °F 38.6 °F 37.8 °F 89% 30.31 in 10.0 mi ENE 3.5 mph - N/A   Clear
8:34 PM 41.2 °F 39.2 °F 38.5 °F 90% 30.31 in 10.0 mi ENE 3.5 mph - N/A   Mostly Cloudy
8:55 PM 42.4 °F 40.7 °F 39.2 °F 88% 30.31 in 10.0 mi NE 3.5 mph - N/A   Mostly Cloudy
9:14 PM 40.8 °F 36.9 °F 37.9 °F 89% 30.32 in 10.0 mi East 5.8 mph - N/A   Scattered Clouds
9:34 PM 41.5 °F 37.8 °F 38.1 °F 88% 30.33 in 10.0 mi NE 5.8 mph - N/A   Clear
9:55 PM 41.7 °F 36.7 °F 37.6 °F 85% 30.34 in 10.0 mi NE 8.1 mph - N/A   Clear
10:14 PM 40.6 °F 36.7 °F 36.9 °F 86% 30.34 in 10.0 mi NE 5.8 mph - N/A   Clear
10:35 PM 39.7 °F 36.5 °F 36.1 °F 87% 30.35 in 10.0 mi ENE 4.6 mph - N/A   Clear
10:55 PM 38.8 °F 35.4 °F 35.2 °F 87% 30.35 in 10.0 mi ENE 4.6 mph - N/A   Clear
11:14 PM 38.1 °F 35.7 °F 34.7 °F 87% 30.35 in 10.0 mi ENE 3.5 mph - N/A   Clear
11:35 PM 36.9 °F 34.3 °F 34.0 °F 89% 30.36 in 10.0 mi East 3.5 mph - N/A   Clear
11:54 PM 36.0 °F 33.3 °F 33.3 °F 90% 30.36 in 10.0 mi ENE 3.5 mph - N/A   Clear